Elefsis, Greece

8:51 AM EET on February 14, 2016 (GMT +0200)
Elefsis Air Base

Weather History for LGEL - July, 2013

Change the Weather History Date:

Sunday, July 21, 2013

  Actual Average Record
Temperature  
Mean Temperature 85 °F -  
Max Temperature 95 °F 90 °F - ()
Min Temperature 75 °F 72 °F - ()
Cooling Degree Days 20    
Growing Degree Days 35 (Base 50)    
Moisture  
Dew Point 50 °F    
Average Humidity 29    
Maximum Humidity 41    
Minimum Humidity 20    
Precipitation  
Precipitation 0.00 in - - ()
Sea Level Pressure  
Sea Level Pressure 29.84 in    
Wind  
Wind Speed 8 mph ()    
Max Wind Speed 17 mph    
Max Gust Speed -    
T = Trace of Precipitation, MM = Missing Value Source: Averaged Metar Reports

Daily Weather History Graph

Daily Weather History Graph

Search for Another Location

Airport or City:

Trip Planner

Search our weather history database for the weather conditions in past years. The results will help you decide how hot, cold, wet, or windy it might be!

Date:

Astronomy

Jul. 21, 2013 Rise Set
Actual Time 6:19 AM EEST 8:44 PM EEST
Civil Twilight 5:49 AM EEST 9:14 PM EEST
Nautical Twilight 5:12 AM EEST 9:51 PM EEST
Astronomical Twilight 4:30 AM EEST 10:32 PM EEST
Moon 7:26 PM EEST (7/21) 4:43 AM EEST (7/21)
Length of Visible Light 15h 25m
Length of Day
14h 24m
Waxing Gibbous, 97% of the Moon is Illuminated
Jul 21
Waxing Gibbous
Jul 22
Full
Jul 29
Last Quarter
Aug 7
New
Aug 14
First Quarter

Hourly Weather History & Observations

Time (EEST) Temp. Dew Point Humidity Pressure Visibility Wind Dir Wind Speed Gust Speed Precip Events Conditions
12:50 AM 78.8 °F 48.2 °F 34% 29.86 in - SSW 4.6 mph - N/A   Clear
1:50 AM 78.8 °F 48.2 °F 34% 29.86 in - NNW 6.9 mph - N/A   Clear
2:50 AM 77.0 °F 48.2 °F 36% 29.86 in - North 4.6 mph - N/A   Clear
3:50 AM 77.0 °F 48.2 °F 36% 29.86 in - WNW 5.8 mph - N/A   Clear
5:50 AM 75.2 °F 50.0 °F 41% 29.86 in - Calm Calm - N/A   Clear
6:20 AM 75.2 °F 50.0 °F 41% 29.86 in - North 3.5 mph - N/A   Clear
6:50 AM 75.2 °F 50.0 °F 41% 29.86 in - NNE 3.5 mph - N/A   Clear
7:20 AM 77.0 °F 50.0 °F 39% 29.86 in - North 5.8 mph - N/A   Clear
7:50 AM 78.8 °F 50.0 °F 36% 29.86 in - North 4.6 mph - N/A   Clear
8:20 AM 82.4 °F 50.0 °F 32% 29.86 in - North 4.6 mph - N/A   Clear
8:50 AM 84.2 °F 50.0 °F 30% 29.86 in - NNW 11.5 mph - N/A   Clear
9:20 AM 86.0 °F 50.0 °F 29% 29.86 in - North 11.5 mph - N/A   Clear
9:50 AM 87.8 °F 48.2 °F 25% 29.86 in - North 9.2 mph - N/A   Clear
10:20 AM 87.8 °F 50.0 °F 27% 29.86 in - North 9.2 mph - N/A   Clear
10:50 AM 89.6 °F 50.0 °F 26% 29.86 in - North 11.5 mph - N/A   Clear
11:50 AM 89.6 °F 48.2 °F 24% 29.86 in - North 17.3 mph - N/A   Clear
12:20 PM 91.4 °F 48.2 °F 23% 29.86 in - North 17.3 mph - N/A   Clear
12:50 PM 91.4 °F 50.0 °F 24% 29.86 in - North 16.1 mph - N/A   Clear
1:20 PM 91.4 °F 50.0 °F 24% 29.86 in - North 16.1 mph - N/A   Clear
1:50 PM 93.2 °F 50.0 °F 23% 29.83 in - NNE 13.8 mph - N/A   Clear
2:20 PM 93.2 °F 50.0 °F 23% 29.83 in - North 16.1 mph - N/A   Clear
2:50 PM 95.0 °F 48.2 °F 20% 29.83 in - North 13.8 mph - N/A   Clear
3:20 PM 95.0 °F 48.2 °F 20% 29.83 in - North 13.8 mph - N/A   Clear
3:50 PM 95.0 °F 50.0 °F 22% 29.83 in - North 16.1 mph - N/A   Clear
4:20 PM 93.2 °F 50.0 °F 23% 29.83 in - North 16.1 mph - N/A   Clear
4:50 PM 93.2 °F 50.0 °F 23% 29.80 in - North 13.8 mph - N/A   Clear
5:20 PM 93.2 °F 50.0 °F 23% 29.80 in - NNE 13.8 mph - N/A   Clear
5:50 PM 93.2 °F 50.0 °F 23% 29.80 in - North 13.8 mph - N/A   Clear
6:20 PM 93.2 °F 50.0 °F 23% 29.80 in - NNE 11.5 mph - N/A   Clear
6:50 PM 91.4 °F 50.0 °F 24% 29.80 in - NNE 11.5 mph - N/A   Clear
7:20 PM 89.6 °F 48.2 °F 24% 29.80 in - North 11.5 mph - N/A   Clear
7:50 PM 89.6 °F 48.2 °F 24% 29.83 in - North 11.5 mph - N/A   Clear
8:20 PM 87.8 °F 48.2 °F 25% 29.83 in - North 9.2 mph - N/A   Clear
8:50 PM 86.0 °F 50.0 °F 29% 29.83 in - North 9.2 mph - N/A   Clear
9:20 PM 86.0 °F 50.0 °F 29% 29.83 in - North 9.2 mph - N/A   Clear
9:50 PM 84.2 °F 51.8 °F 33% 29.86 in - Calm Calm - N/A   Clear
10:50 PM 82.4 °F 50.0 °F 32% 29.89 in - Calm Calm - N/A   Clear
11:20 PM 82.4 °F 50.0 °F 32% 29.89 in - Calm Calm - N/A   Clear
11:50 PM 80.6 °F 51.8 °F 37% 29.86 in - Calm Calm - N/A   Clear